owner,sensor,date,latitude,longitude,vertical_datum,mass_concentration_of_oxygen_in_sea_water,qcFlag 
SCCF RECON,ioos:station:SCCF:16:1,2010-03-01T00:00:00Z,26.4345,-81.9647,2.059,7.65,1111122 
SCCF RECON,ioos:station:SCCF:16:1,2010-03-01T01:00:00Z,26.4345,-81.9647,2.266,7.63,1111122 
SCCF RECON,ioos:station:SCCF:16:1,2010-03-01T02:00:00Z,26.4345,-81.9647,2.515,7.74,1111122 
SCCF RECON,ioos:station:SCCF:16:1,2010-03-01T03:00:00Z,26.4345,-81.9647,2.694,7.85,1111122 
SCCF RECON,ioos:station:SCCF:16:1,2010-03-01T04:00:00Z,26.4345,-81.9647,2.827,7.86,1111122 
SCCF RECON,ioos:station:SCCF:16:1,2010-03-01T05:00:00Z,26.4345,-81.9647,2.914,7.73,1111122 
SCCF RECON,ioos:station:SCCF:16:1,2010-03-01T06:00:00Z,26.4345,-81.9647,2.858,7.68,1111122 
SCCF RECON,ioos:station:SCCF:16:1,2010-03-01T07:00:00Z,26.4345,-81.9647,2.691,7.66,1111122 
SCCF RECON,ioos:station:SCCF:16:1,2010-03-01T08:00:00Z,26.4345,-81.9647,2.431,7.64,1111122 
SCCF RECON,ioos:station:SCCF:16:1,2010-03-01T09:00:00Z,26.4345,-81.9647,2.213,7.58,1111122 
SCCF RECON,ioos:station:SCCF:16:1,2010-03-01T10:00:00Z,26.4345,-81.9647,2.073,7.56,1111122 
SCCF RECON,ioos:station:SCCF:16:1,2010-03-01T11:00:00Z,26.4345,-81.9647,1.928,7.44,1111122 
SCCF RECON,ioos:station:SCCF:16:1,2010-03-01T12:00:00Z,26.4345,-81.9647,1.895,7.41,1111122 
SCCF RECON,ioos:station:SCCF:16:1,2010-03-01T13:00:00Z,26.4345,-81.9647,2.075,7.39,1111122 
SCCF RECON,ioos:station:SCCF:16:1,2010-03-01T14:00:00Z,26.4345,-81.9647,2.343,7.39,1111122 
SCCF RECON,ioos:station:SCCF:16:1,2010-03-01T15:00:00Z,26.4345,-81.9647,2.54,7.59,1111122 
SCCF RECON,ioos:station:SCCF:16:1,2010-03-01T16:00:00Z,26.4345,-81.9647,2.668,7.7,1111122 
SCCF RECON,ioos:station:SCCF:16:1,2010-03-01T17:00:00Z,26.4345,-81.9647,2.743,7.72,1111122 
SCCF RECON,ioos:station:SCCF:16:1,2010-03-01T18:00:00Z,26.4345,-81.9647,2.721,7.8,1111122 
SCCF RECON,ioos:station:SCCF:16:1,2010-03-01T19:00:00Z,26.4345,-81.9647,2.632,7.79,1111122 
SCCF RECON,ioos:station:SCCF:16:1,2010-03-01T20:00:00Z,26.4345,-81.9647,2.435,7.88,1111122 
SCCF RECON,ioos:station:SCCF:16:1,2010-03-01T21:00:00Z,26.4345,-81.9647,2.265,7.85,1111122 
SCCF RECON,ioos:station:SCCF:16:1,2010-03-01T22:00:00Z,26.4345,-81.9647,2.118,7.83,1111122 
SCCF RECON,ioos:station:SCCF:16:1,2010-03-01T23:00:00Z,26.4345,-81.9647,1.966,7.78,1111122 
SCCF RECON,ioos:station:SCCF:16:1,2010-03-02T00:00:00Z,26.4345,-81.9647,1.93,7.66,1111122 
SCCF RECON,ioos:station:SCCF:16:1,2010-03-02T01:00:00Z,26.4345,-81.9647,2.015,7.59,1111122 
SCCF RECON,ioos:station:SCCF:16:1,2010-03-02T02:00:00Z,26.4345,-81.9647,2.287,7.57,1111122 
SCCF RECON,ioos:station:SCCF:16:1,2010-03-02T03:00:00Z,26.4345,-81.9647,2.558,7.75,1111122 
SCCF RECON,ioos:station:SCCF:16:1,2010-03-02T04:00:00Z,26.4345,-81.9647,2.712,7.84,1111122 
SCCF RECON,ioos:station:SCCF:16:1,2010-03-02T05:00:00Z,26.4345,-81.9647,2.809,7.86,1111122 
SCCF RECON,ioos:station:SCCF:16:1,2010-03-02T06:00:00Z,26.4345,-81.9647,2.839,7.84,1111122 
SCCF RECON,ioos:station:SCCF:16:1,2010-03-02T07:00:00Z,26.4345,-81.9647,2.765,7.83,1111122 
SCCF RECON,ioos:station:SCCF:16:1,2010-03-02T08:00:00Z,26.4345,-81.9647,2.608,7.76,1111122 
SCCF RECON,ioos:station:SCCF:16:1,2010-03-02T09:00:00Z,26.4345,-81.9647,2.399,7.79,1111122 
SCCF RECON,ioos:station:SCCF:16:1,2010-03-02T10:00:00Z,26.4345,-81.9647,2.245,7.71,1111122 
SCCF RECON,ioos:station:SCCF:16:1,2010-03-02T11:00:00Z,26.4345,-81.9647,2.184,7.52,1111122 
SCCF RECON,ioos:station:SCCF:16:1,2010-03-02T12:00:00Z,26.4345,-81.9647,2.211,7.53,1111122 
SCCF RECON,ioos:station:SCCF:16:1,2010-03-02T13:00:00Z,26.4345,-81.9647,2.333,7.54,1111122 
SCCF RECON,ioos:station:SCCF:16:1,2010-03-02T14:00:00Z,26.4345,-81.9647,2.515,7.52,1111122 
SCCF RECON,ioos:station:SCCF:16:1,2010-03-02T15:00:00Z,26.4345,-81.9647,2.716,7.57,1111122 
SCCF RECON,ioos:station:SCCF:16:1,2010-03-02T16:00:00Z,26.4345,-81.9647,2.822,7.72,1111122 
SCCF RECON,ioos:station:SCCF:16:1,2010-03-02T17:00:00Z,26.4345,-81.9647,2.849,7.78,1111122 
SCCF RECON,ioos:station:SCCF:16:1,2010-03-02T18:00:00Z,26.4345,-81.9647,2.885,7.86,1111122 
SCCF RECON,ioos:station:SCCF:16:1,2010-03-02T19:00:00Z,26.4345,-81.9647,2.827,7.93,1111122 
SCCF RECON,ioos:station:SCCF:16:1,2010-03-02T20:00:00Z,26.4345,-81.9647,2.691,7.87,1111122 
SCCF RECON,ioos:station:SCCF:16:1,2010-03-02T21:00:00Z,26.4345,-81.9647,2.509,7.81,1111122 
SCCF RECON,ioos:station:SCCF:16:1,2010-03-02T22:00:00Z,26.4345,-81.9647,2.304,7.8,1111122 
SCCF RECON,ioos:station:SCCF:16:1,2010-03-02T23:00:00Z,26.4345,-81.9647,1.995,7.67,1111122 
SCCF RECON,ioos:station:SCCF:16:1,2010-03-03T00:00:00Z,26.4345,-81.9647,1.871,7.49,1111122 
SCCF RECON,ioos:station:SCCF:16:1,2010-03-03T01:00:00Z,26.4345,-81.9647,1.84,7.55,1111122 
SCCF RECON,ioos:station:SCCF:16:1,2010-03-03T02:00:00Z,26.4345,-81.9647,1.99,7.55,1111122 
SCCF RECON,ioos:station:SCCF:16:1,2010-03-03T03:00:00Z,26.4345,-81.9647,2.209,7.58,1111122 
SCCF RECON,ioos:station:SCCF:16:1,2010-03-03T04:00:00Z,26.4345,-81.9647,2.372,7.62,1111122 
SCCF RECON,ioos:station:SCCF:16:1,2010-03-03T05:00:00Z,26.4345,-81.9647,2.407,7.59,1111122 
SCCF RECON,ioos:station:SCCF:16:1,2010-03-03T06:00:00Z,26.4345,-81.9647,2.535,7.64,1111122 
SCCF RECON,ioos:station:SCCF:16:1,2010-03-03T07:00:00Z,26.4345,-81.9647,2.586,7.58,1111122 
SCCF RECON,ioos:station:SCCF:16:1,2010-03-03T08:00:00Z,26.4345,-81.9647,2.503,7.63,1111122 
SCCF RECON,ioos:station:SCCF:16:1,2010-03-03T09:00:00Z,26.4345,-81.9647,2.264,7.51,1111122 
SCCF RECON,ioos:station:SCCF:16:1,2010-03-03T10:00:00Z,26.4345,-81.9647,2.056,7.48,1111122 
SCCF RECON,ioos:station:SCCF:16:1,2010-03-03T11:00:00Z,26.4345,-81.9647,1.926,7.45,1111122 
SCCF RECON,ioos:station:SCCF:16:1,2010-03-03T12:00:00Z,26.4345,-81.9647,1.894,7.41,1111122 
SCCF RECON,ioos:station:SCCF:16:1,2010-03-03T13:00:00Z,26.4345,-81.9647,1.869,7.42,1111122 
SCCF RECON,ioos:station:SCCF:16:1,2010-03-03T14:00:00Z,26.4345,-81.9647,2.005,7.4,1111122 
SCCF RECON,ioos:station:SCCF:16:1,2010-03-03T15:00:00Z,26.4345,-81.9647,2.244,7.45,1111122 
SCCF RECON,ioos:station:SCCF:16:1,2010-03-03T16:00:00Z,26.4345,-81.9647,2.392,7.49,1111122 
SCCF RECON,ioos:station:SCCF:16:1,2010-03-03T17:00:00Z,26.4345,-81.9647,2.503,7.53,1111122 
SCCF RECON,ioos:station:SCCF:16:1,2010-03-03T18:00:00Z,26.4345,-81.9647,2.584,7.62,1111122 
SCCF RECON,ioos:station:SCCF:16:1,2010-03-03T19:00:00Z,26.4345,-81.9647,2.556,7.64,1111122 
SCCF RECON,ioos:station:SCCF:16:1,2010-03-03T20:00:00Z,26.4345,-81.9647,2.506,7.64,1111122 
SCCF RECON,ioos:station:SCCF:16:1,2010-03-03T21:00:00Z,26.4345,-81.9647,2.34,7.64,1111122 
SCCF RECON,ioos:station:SCCF:16:1,2010-03-03T22:00:00Z,26.4345,-81.9647,2.147,7.65,1111122 
SCCF RECON,ioos:station:SCCF:16:1,2010-03-03T23:00:00Z,26.4345,-81.9647,2.037,7.67,1111122 
SCCF RECON,ioos:station:SCCF:16:1,2010-03-04T00:00:00Z,26.4345,-81.9647,1.901,7.65,1111122 
SCCF RECON,ioos:station:SCCF:16:1,2010-03-04T01:00:00Z,26.4345,-81.9647,1.801,7.55,1111122 
SCCF RECON,ioos:station:SCCF:16:1,2010-03-04T02:00:00Z,26.4345,-81.9647,1.732,7.58,1111122 
SCCF RECON,ioos:station:SCCF:16:1,2010-03-04T03:00:00Z,26.4345,-81.9647,1.861,7.6,1111122 
SCCF RECON,ioos:station:SCCF:16:1,2010-03-04T04:00:00Z,26.4345,-81.9647,2.07,7.63,1111122 
SCCF RECON,ioos:station:SCCF:16:1,2010-03-04T05:00:00Z,26.4345,-81.9647,2.299,7.64,1111122 
SCCF RECON,ioos:station:SCCF:16:1,2010-03-04T06:00:00Z,26.4345,-81.9647,2.431,7.53,1111122 
SCCF RECON,ioos:station:SCCF:16:1,2010-03-04T07:00:00Z,26.4345,-81.9647,2.516,7.52,1111122 
SCCF RECON,ioos:station:SCCF:16:1,2010-03-04T08:00:00Z,26.4345,-81.9647,2.544,7.49,1111122 
SCCF RECON,ioos:station:SCCF:16:1,2010-03-04T09:00:00Z,26.4345,-81.9647,2.444,7.49,1111122 
SCCF RECON,ioos:station:SCCF:16:1,2010-03-04T10:00:00Z,26.4345,-81.9647,2.321,7.48,1111122 
SCCF RECON,ioos:station:SCCF:16:1,2010-03-04T11:00:00Z,26.4345,-81.9647,2.244,7.46,1111122 
SCCF RECON,ioos:station:SCCF:16:1,2010-03-04T12:00:00Z,26.4345,-81.9647,2.187,7.45,1111122 
SCCF RECON,ioos:station:SCCF:16:1,2010-03-04T13:00:00Z,26.4345,-81.9647,2.146,7.39,1111122 
SCCF RECON,ioos:station:SCCF:16:1,2010-03-04T14:00:00Z,26.4345,-81.9647,2.173,7.41,1111122 
SCCF RECON,ioos:station:SCCF:16:1,2010-03-04T15:00:00Z,26.4345,-81.9647,2.207,7.47,1111122 
SCCF RECON,ioos:station:SCCF:16:1,2010-03-04T16:00:00Z,26.4345,-81.9647,2.306,7.48,1111122 
SCCF RECON,ioos:station:SCCF:16:1,2010-03-04T17:00:00Z,26.4345,-81.9647,2.518,7.63,1111122 
SCCF RECON,ioos:station:SCCF:16:1,2010-03-04T18:00:00Z,26.4345,-81.9647,2.593,7.73,1111122 
SCCF RECON,ioos:station:SCCF:16:1,2010-03-04T19:00:00Z,26.4345,-81.9647,2.631,7.71,1111122 
SCCF RECON,ioos:station:SCCF:16:1,2010-03-04T20:00:00Z,26.4345,-81.9647,2.568,7.77,1111122 
SCCF RECON,ioos:station:SCCF:16:1,2010-03-04T21:00:00Z,26.4345,-81.9647,2.444,7.78,1111122 
SCCF RECON,ioos:station:SCCF:16:1,2010-03-04T22:00:00Z,26.4345,-81.9647,2.256,7.72,1111122 
SCCF RECON,ioos:station:SCCF:16:1,2010-03-04T23:00:00Z,26.4345,-81.9647,2.112,7.73,1111122 
SCCF RECON,ioos:station:SCCF:16:1,2010-03-05T00:00:00Z,26.4345,-81.9647,1.977,7.83,1111122 
SCCF RECON,ioos:station:SCCF:16:1,2010-03-05T01:00:00Z,26.4345,-81.9647,1.851,7.67,1111122 
SCCF RECON,ioos:station:SCCF:16:1,2010-03-05T02:00:00Z,26.4345,-81.9647,1.742,7.79,1111122 
SCCF RECON,ioos:station:SCCF:16:1,2010-03-05T03:00:00Z,26.4345,-81.9647,1.748,7.76,1111122 
SCCF RECON,ioos:station:SCCF:16:1,2010-03-05T04:00:00Z,26.4345,-81.9647,1.942,7.79,1111122 
SCCF RECON,ioos:station:SCCF:16:1,2010-03-05T05:00:00Z,26.4345,-81.9647,2.071,7.76,1111122 
SCCF RECON,ioos:station:SCCF:16:1,2010-03-05T06:00:00Z,26.4345,-81.9647,2.226,7.89,1111122 
SCCF RECON,ioos:station:SCCF:16:1,2010-03-05T07:00:00Z,26.4345,-81.9647,2.282,7.73,1111122 
SCCF RECON,ioos:station:SCCF:16:1,2010-03-05T08:00:00Z,26.4345,-81.9647,2.336,7.74,1111122 
SCCF RECON,ioos:station:SCCF:16:1,2010-03-05T09:00:00Z,26.4345,-81.9647,2.349,7.73,1111122 
SCCF RECON,ioos:station:SCCF:16:1,2010-03-05T10:00:00Z,26.4345,-81.9647,2.327,7.7,1111122 
SCCF RECON,ioos:station:SCCF:16:1,2010-03-05T11:00:00Z,26.4345,-81.9647,2.277,7.68,1111122 
SCCF RECON,ioos:station:SCCF:16:1,2010-03-05T12:00:00Z,26.4345,-81.9647,2.195,7.62,1111122 
SCCF RECON,ioos:station:SCCF:16:1,2010-03-05T13:00:00Z,26.4345,-81.9647,2.228,7.53,1111122 
SCCF RECON,ioos:station:SCCF:16:1,2010-03-05T14:00:00Z,26.4345,-81.9647,2.235,7.72,1111122 
SCCF RECON,ioos:station:SCCF:16:1,2010-03-05T15:00:00Z,26.4345,-81.9647,2.278,7.83,1111122 
SCCF RECON,ioos:station:SCCF:16:1,2010-03-05T16:00:00Z,26.4345,-81.9647,2.343,7.87,1111122 
SCCF RECON,ioos:station:SCCF:16:1,2010-03-05T17:00:00Z,26.4345,-81.9647,2.458,7.97,1111122 
SCCF RECON,ioos:station:SCCF:16:1,2010-03-05T18:00:00Z,26.4345,-81.9647,2.577,8.08,1111122 
SCCF RECON,ioos:station:SCCF:16:1,2010-03-05T19:00:00Z,26.4345,-81.9647,2.641,7.88,1111122 
SCCF RECON,ioos:station:SCCF:16:1,2010-03-05T20:00:00Z,26.4345,-81.9647,2.661,7.83,1111122 
SCCF RECON,ioos:station:SCCF:16:1,2010-03-05T21:00:00Z,26.4345,-81.9647,2.571,7.85,1111122 
SCCF RECON,ioos:station:SCCF:16:1,2010-03-05T22:00:00Z,26.4345,-81.9647,2.443,7.8,1111122 
SCCF RECON,ioos:station:SCCF:16:1,2010-03-05T23:00:00Z,26.4345,-81.9647,2.298,7.85,1111122 
SCCF RECON,ioos:station:SCCF:16:1,2010-03-06T00:00:00Z,26.4345,-81.9647,2.167,7.85,1111122 
SCCF RECON,ioos:station:SCCF:16:1,2010-03-06T01:00:00Z,26.4345,-81.9647,2.06,7.85,1111122 
SCCF RECON,ioos:station:SCCF:16:1,2010-03-06T02:00:00Z,26.4345,-81.9647,1.913,7.89,1111122 
SCCF RECON,ioos:station:SCCF:16:1,2010-03-06T03:00:00Z,26.4345,-81.9647,1.853,7.93,1111122 
SCCF RECON,ioos:station:SCCF:16:1,2010-03-06T04:00:00Z,26.4345,-81.9647,1.847,7.99,1111122 
SCCF RECON,ioos:station:SCCF:16:1,2010-03-06T05:00:00Z,26.4345,-81.9647,1.913,7.96,1111122 
SCCF RECON,ioos:station:SCCF:16:1,2010-03-06T06:00:00Z,26.4345,-81.9647,2.049,7.96,1111122 
SCCF RECON,ioos:station:SCCF:16:1,2010-03-06T07:00:00Z,26.4345,-81.9647,2.128,7.97,1111122 
SCCF RECON,ioos:station:SCCF:16:1,2010-03-06T08:00:00Z,26.4345,-81.9647,2.166,8.04,1111122 
SCCF RECON,ioos:station:SCCF:16:1,2010-03-06T09:00:00Z,26.4345,-81.9647,2.184,7.95,1111122 
SCCF RECON,ioos:station:SCCF:16:1,2010-03-06T10:00:00Z,26.4345,-81.9647,2.195,8.01,1111122 
SCCF RECON,ioos:station:SCCF:16:1,2010-03-06T11:00:00Z,26.4345,-81.9647,2.202,7.99,1111122 
SCCF RECON,ioos:station:SCCF:16:1,2010-03-06T12:00:00Z,26.4345,-81.9647,2.192,7.97,1111122 
SCCF RECON,ioos:station:SCCF:16:1,2010-03-06T13:00:00Z,26.4345,-81.9647,2.169,7.95,1111122 
SCCF RECON,ioos:station:SCCF:16:1,2010-03-06T14:00:00Z,26.4345,-81.9647,2.162,7.93,1111122 
SCCF RECON,ioos:station:SCCF:16:1,2010-03-06T15:00:00Z,26.4345,-81.9647,2.216,7.91,1111122 
SCCF RECON,ioos:station:SCCF:16:1,2010-03-06T16:00:00Z,26.4345,-81.9647,2.28,8.03,1111122 
SCCF RECON,ioos:station:SCCF:16:1,2010-03-06T17:00:00Z,26.4345,-81.9647,2.354,8.08,1111122 
SCCF RECON,ioos:station:SCCF:16:1,2010-03-06T18:00:00Z,26.4345,-81.9647,2.457,8.14,1111122 
SCCF RECON,ioos:station:SCCF:16:1,2010-03-06T19:00:00Z,26.4345,-81.9647,2.538,8.15,1111122 
SCCF RECON,ioos:station:SCCF:16:1,2010-03-06T20:00:00Z,26.4345,-81.9647,2.615,8.19,1111122 
SCCF RECON,ioos:station:SCCF:16:1,2010-03-06T21:00:00Z,26.4345,-81.9647,2.618,8.11,1111122 
SCCF RECON,ioos:station:SCCF:16:1,2010-03-06T22:00:00Z,26.4345,-81.9647,2.56,8.17,1111122 
SCCF RECON,ioos:station:SCCF:16:1,2010-03-06T23:00:00Z,26.4345,-81.9647,2.458,8.11,1111122 
SCCF RECON,ioos:station:SCCF:16:1,2010-03-07T00:00:00Z,26.4345,-81.9647,2.333,8.04,1111122 
SCCF RECON,ioos:station:SCCF:16:1,2010-03-07T01:00:00Z,26.4345,-81.9647,2.232,8.01,1111122 
SCCF RECON,ioos:station:SCCF:16:1,2010-03-07T02:00:00Z,26.4345,-81.9647,2.119,8.0,1111122 
SCCF RECON,ioos:station:SCCF:16:1,2010-03-07T03:00:00Z,26.4345,-81.9647,1.963,7.9,1111122 
SCCF RECON,ioos:station:SCCF:16:1,2010-03-07T04:00:00Z,26.4345,-81.9647,1.875,7.93,1111122 
SCCF RECON,ioos:station:SCCF:16:1,2010-03-07T05:00:00Z,26.4345,-81.9647,1.854,8.02,1111122 
SCCF RECON,ioos:station:SCCF:16:1,2010-03-07T06:00:00Z,26.4345,-81.9647,1.932,8.06,1111122 
SCCF RECON,ioos:station:SCCF:16:1,2010-03-07T07:00:00Z,26.4345,-81.9647,2.012,8.06,1111122 
SCCF RECON,ioos:station:SCCF:16:1,2010-03-07T08:00:00Z,26.4345,-81.9647,2.081,7.92,1111122 
SCCF RECON,ioos:station:SCCF:16:1,2010-03-07T09:00:00Z,26.4345,-81.9647,2.143,8.02,1111122 
SCCF RECON,ioos:station:SCCF:16:1,2010-03-07T10:00:00Z,26.4345,-81.9647,2.208,8.05,1111122 
SCCF RECON,ioos:station:SCCF:16:1,2010-03-07T11:00:00Z,26.4345,-81.9647,2.283,8.06,1111122 
SCCF RECON,ioos:station:SCCF:16:1,2010-03-07T12:00:00Z,26.4345,-81.9647,2.298,8.04,1111122 
SCCF RECON,ioos:station:SCCF:16:1,2010-03-07T13:00:00Z,26.4345,-81.9647,2.303,8.05,1111122 
SCCF RECON,ioos:station:SCCF:16:1,2010-03-07T14:00:00Z,26.4345,-81.9647,2.293,8.06,1111122 
SCCF RECON,ioos:station:SCCF:16:1,2010-03-07T15:00:00Z,26.4345,-81.9647,2.318,8.02,1111122 
SCCF RECON,ioos:station:SCCF:16:1,2010-03-07T16:00:00Z,26.4345,-81.9647,2.309,8.02,1111122 
SCCF RECON,ioos:station:SCCF:16:1,2010-03-07T17:00:00Z,26.4345,-81.9647,2.365,8.1,1111122 
SCCF RECON,ioos:station:SCCF:16:1,2010-03-07T18:00:00Z,26.4345,-81.9647,2.474,8.15,1111122 
SCCF RECON,ioos:station:SCCF:16:1,2010-03-07T19:00:00Z,26.4345,-81.9647,2.553,8.2,1111122 
SCCF RECON,ioos:station:SCCF:16:1,2010-03-07T20:00:00Z,26.4345,-81.9647,2.607,8.22,1111122 
SCCF RECON,ioos:station:SCCF:16:1,2010-03-07T21:00:00Z,26.4345,-81.9647,2.595,8.31,1111122 
SCCF RECON,ioos:station:SCCF:16:1,2010-03-07T22:00:00Z,26.4345,-81.9647,2.611,8.24,1111122 
SCCF RECON,ioos:station:SCCF:16:1,2010-03-07T23:00:00Z,26.4345,-81.9647,2.582,8.05,1111122 
SCCF RECON,ioos:station:SCCF:16:1,2010-03-08T00:00:00Z,26.4345,-81.9647,2.505,8.14,1111122 
SCCF RECON,ioos:station:SCCF:16:1,2010-03-08T01:00:00Z,26.4345,-81.9647,2.389,8.16,1111122 
SCCF RECON,ioos:station:SCCF:16:1,2010-03-08T02:00:00Z,26.4345,-81.9647,2.296,8.16,1111122 
SCCF RECON,ioos:station:SCCF:16:1,2010-03-08T03:00:00Z,26.4345,-81.9647,2.195,7.97,1111122 
SCCF RECON,ioos:station:SCCF:16:1,2010-03-08T04:00:00Z,26.4345,-81.9647,2.094,7.97,1111122 
SCCF RECON,ioos:station:SCCF:16:1,2010-03-08T05:00:00Z,26.4345,-81.9647,2.032,7.99,1111122 
SCCF RECON,ioos:station:SCCF:16:1,2010-03-08T06:00:00Z,26.4345,-81.9647,1.966,8.0,1111122 
SCCF RECON,ioos:station:SCCF:16:1,2010-03-08T07:00:00Z,26.4345,-81.9647,1.982,8.04,1111122 
SCCF RECON,ioos:station:SCCF:16:1,2010-03-08T08:00:00Z,26.4345,-81.9647,2.065,8.03,1111122 
SCCF RECON,ioos:station:SCCF:16:1,2010-03-08T09:00:00Z,26.4345,-81.9647,2.134,7.95,1111122 
SCCF RECON,ioos:station:SCCF:16:1,2010-03-08T10:00:00Z,26.4345,-81.9647,2.204,7.93,1111122 
SCCF RECON,ioos:station:SCCF:16:1,2010-03-08T11:00:00Z,26.4345,-81.9647,2.312,8.04,1111122 
SCCF RECON,ioos:station:SCCF:16:1,2010-03-08T12:00:00Z,26.4345,-81.9647,2.396,8.01,1111122 
SCCF RECON,ioos:station:SCCF:16:1,2010-03-08T13:00:00Z,26.4345,-81.9647,2.467,8.08,1111122 
SCCF RECON,ioos:station:SCCF:16:1,2010-03-08T14:00:00Z,26.4345,-81.9647,2.49,8.1,1111122 
SCCF RECON,ioos:station:SCCF:16:1,2010-03-08T15:00:00Z,26.4345,-81.9647,2.458,8.14,1111122 
SCCF RECON,ioos:station:SCCF:16:1,2010-03-08T16:00:00Z,26.4345,-81.9647,2.416,7.99,1111122 
SCCF RECON,ioos:station:SCCF:16:1,2010-03-08T17:00:00Z,26.4345,-81.9647,2.451,8.14,1111122 
SCCF RECON,ioos:station:SCCF:16:1,2010-03-08T18:00:00Z,26.4345,-81.9647,2.494,8.23,1111122 
SCCF RECON,ioos:station:SCCF:16:1,2010-03-08T19:00:00Z,26.4345,-81.9647,2.525,8.23,1111122 
SCCF RECON,ioos:station:SCCF:16:1,2010-03-08T20:00:00Z,26.4345,-81.9647,2.535,8.31,1111122 
SCCF RECON,ioos:station:SCCF:16:1,2010-03-08T21:00:00Z,26.4345,-81.9647,2.621,8.33,1111122 
SCCF RECON,ioos:station:SCCF:16:1,2010-03-08T22:00:00Z,26.4345,-81.9647,2.634,8.3,1111122 
SCCF RECON,ioos:station:SCCF:16:1,2010-03-08T23:00:00Z,26.4345,-81.9647,2.635,8.4,1111122 
SCCF RECON,ioos:station:SCCF:16:1,2010-03-09T00:00:00Z,26.4345,-81.9647,2.597,8.44,1111122 
SCCF RECON,ioos:station:SCCF:16:1,2010-03-09T01:00:00Z,26.4345,-81.9647,2.542,8.39,1111122 
SCCF RECON,ioos:station:SCCF:16:1,2010-03-09T02:00:00Z,26.4345,-81.9647,2.524,8.48,1111122 
SCCF RECON,ioos:station:SCCF:16:1,2010-03-09T03:00:00Z,26.4345,-81.9647,2.393,8.48,1111122 
SCCF RECON,ioos:station:SCCF:16:1,2010-03-09T04:00:00Z,26.4345,-81.9647,2.268,8.14,1111122 
SCCF RECON,ioos:station:SCCF:16:1,2010-03-09T05:00:00Z,26.4345,-81.9647,2.172,8.09,1111122 
SCCF RECON,ioos:station:SCCF:16:1,2010-03-09T06:00:00Z,26.4345,-81.9647,2.059,8.13,1111122 
SCCF RECON,ioos:station:SCCF:16:1,2010-03-09T07:00:00Z,26.4345,-81.9647,2.005,8.07,1111122 
SCCF RECON,ioos:station:SCCF:16:1,2010-03-09T08:00:00Z,26.4345,-81.9647,2.054,8.0,1111122 
SCCF RECON,ioos:station:SCCF:16:1,2010-03-09T09:00:00Z,26.4345,-81.9647,2.117,7.97,1111122 
SCCF RECON,ioos:station:SCCF:16:1,2010-03-09T10:00:00Z,26.4345,-81.9647,2.228,7.94,1111122 
SCCF RECON,ioos:station:SCCF:16:1,2010-03-09T11:00:00Z,26.4345,-81.9647,2.332,8.0,1111122 
SCCF RECON,ioos:station:SCCF:16:1,2010-03-09T12:00:00Z,26.4345,-81.9647,2.397,8.01,1111122 
SCCF RECON,ioos:station:SCCF:16:1,2010-03-09T13:00:00Z,26.4345,-81.9647,2.45,8.11,1111122 
SCCF RECON,ioos:station:SCCF:16:1,2010-03-09T14:00:00Z,26.4345,-81.9647,2.538,7.73,1111122 
SCCF RECON,ioos:station:SCCF:16:1,2010-03-09T15:00:00Z,26.4345,-81.9647,2.535,8.14,1111122 
SCCF RECON,ioos:station:SCCF:16:1,2010-03-09T16:00:00Z,26.4345,-81.9647,2.472,8.17,1111122 
SCCF RECON,ioos:station:SCCF:16:1,2010-03-09T17:00:00Z,26.4345,-81.9647,2.585,8.12,1111122 
SCCF RECON,ioos:station:SCCF:16:1,2010-03-09T18:00:00Z,26.4345,-81.9647,2.562,8.18,1111122 
SCCF RECON,ioos:station:SCCF:16:1,2010-03-09T19:00:00Z,26.4345,-81.9647,2.499,8.15,1111122 
SCCF RECON,ioos:station:SCCF:16:1,2010-03-09T20:00:00Z,26.4345,-81.9647,2.479,8.08,1111122 
SCCF RECON,ioos:station:SCCF:16:1,2010-03-09T21:00:00Z,26.4345,-81.9647,2.486,8.22,1111122 
SCCF RECON,ioos:station:SCCF:16:1,2010-03-09T22:00:00Z,26.4345,-81.9647,2.569,8.3,1111122 
SCCF RECON,ioos:station:SCCF:16:1,2010-03-09T23:00:00Z,26.4345,-81.9647,2.658,8.4,1111122 
SCCF RECON,ioos:station:SCCF:16:1,2010-03-10T00:00:00Z,26.4345,-81.9647,2.704,8.31,1111122 
SCCF RECON,ioos:station:SCCF:16:1,2010-03-10T01:00:00Z,26.4345,-81.9647,2.647,8.25,1111122 
SCCF RECON,ioos:station:SCCF:16:1,2010-03-10T02:00:00Z,26.4345,-81.9647,2.59,8.18,1111122 
SCCF RECON,ioos:station:SCCF:16:1,2010-03-10T03:00:00Z,26.4345,-81.9647,2.58,8.09,1111122 
SCCF RECON,ioos:station:SCCF:16:1,2010-03-10T04:00:00Z,26.4345,-81.9647,2.45,8.17,1111122 
SCCF RECON,ioos:station:SCCF:16:1,2010-03-10T05:00:00Z,26.4345,-81.9647,2.277,8.02,1111122 
SCCF RECON,ioos:station:SCCF:16:1,2010-03-10T06:00:00Z,26.4345,-81.9647,2.169,7.99,1111122 
SCCF RECON,ioos:station:SCCF:16:1,2010-03-10T07:00:00Z,26.4345,-81.9647,2.08,8.03,1111122 
SCCF RECON,ioos:station:SCCF:16:1,2010-03-10T08:00:00Z,26.4345,-81.9647,1.977,7.89,1111122 
SCCF RECON,ioos:station:SCCF:16:1,2010-03-10T09:00:00Z,26.4345,-81.9647,2.006,7.75,1111122 
SCCF RECON,ioos:station:SCCF:16:1,2010-03-10T10:00:00Z,26.4345,-81.9647,2.076,7.76,1111122 
SCCF RECON,ioos:station:SCCF:16:1,2010-03-10T11:00:00Z,26.4345,-81.9647,2.277,7.79,1111122 
SCCF RECON,ioos:station:SCCF:16:1,2010-03-10T12:00:00Z,26.4345,-81.9647,2.401,7.84,1111122 
SCCF RECON,ioos:station:SCCF:16:1,2010-03-10T13:00:00Z,26.4345,-81.9647,2.445,7.85,1111122 
SCCF RECON,ioos:station:SCCF:16:1,2010-03-10T14:00:00Z,26.4345,-81.9647,2.509,7.86,1111122 
SCCF RECON,ioos:station:SCCF:16:1,2010-03-10T15:00:00Z,26.4345,-81.9647,2.573,7.86,1111122 
SCCF RECON,ioos:station:SCCF:16:1,2010-03-10T16:00:00Z,26.4345,-81.9647,2.571,7.97,1111122 
SCCF RECON,ioos:station:SCCF:16:1,2010-03-10T17:00:00Z,26.4345,-81.9647,2.541,8.01,1111122 
SCCF RECON,ioos:station:SCCF:16:1,2010-03-10T18:00:00Z,26.4345,-81.9647,2.512,8.07,1111122 
SCCF RECON,ioos:station:SCCF:16:1,2010-03-10T19:00:00Z,26.4345,-81.9647,2.449,8.09,1111122 
SCCF RECON,ioos:station:SCCF:16:1,2010-03-10T20:00:00Z,26.4345,-81.9647,2.423,8.06,1111122 
SCCF RECON,ioos:station:SCCF:16:1,2010-03-10T21:00:00Z,26.4345,-81.9647,2.467,8.07,1111122 
SCCF RECON,ioos:station:SCCF:16:1,2010-03-10T22:00:00Z,26.4345,-81.9647,2.494,8.12,1111122 
SCCF RECON,ioos:station:SCCF:16:1,2010-03-10T23:00:00Z,26.4345,-81.9647,2.557,8.13,1111122 
SCCF RECON,ioos:station:SCCF:16:1,2010-03-11T00:00:00Z,26.4345,-81.9647,2.59,8.1,1111122 
SCCF RECON,ioos:station:SCCF:16:1,2010-03-11T01:00:00Z,26.4345,-81.9647,2.667,8.09,1111122 
SCCF RECON,ioos:station:SCCF:16:1,2010-03-11T02:00:00Z,26.4345,-81.9647,2.719,8.05,1111122 
SCCF RECON,ioos:station:SCCF:16:1,2010-03-11T03:00:00Z,26.4345,-81.9647,2.665,7.99,1111122 
SCCF RECON,ioos:station:SCCF:16:1,2010-03-11T04:00:00Z,26.4345,-81.9647,2.561,7.94,1111122 
SCCF RECON,ioos:station:SCCF:16:1,2010-03-11T05:00:00Z,26.4345,-81.9647,2.442,7.92,1111122 
SCCF RECON,ioos:station:SCCF:16:1,2010-03-11T06:00:00Z,26.4345,-81.9647,2.276,7.88,1111122 
SCCF RECON,ioos:station:SCCF:16:1,2010-03-11T07:00:00Z,26.4345,-81.9647,2.127,7.82,1111122 
SCCF RECON,ioos:station:SCCF:16:1,2010-03-11T08:00:00Z,26.4345,-81.9647,2.031,7.78,1111122 
SCCF RECON,ioos:station:SCCF:16:1,2010-03-11T09:00:00Z,26.4345,-81.9647,2.007,7.73,1111122 
SCCF RECON,ioos:station:SCCF:16:1,2010-03-11T10:00:00Z,26.4345,-81.9647,2.08,7.62,1111122 
SCCF RECON,ioos:station:SCCF:16:1,2010-03-11T11:00:00Z,26.4345,-81.9647,2.193,7.58,1111122 
SCCF RECON,ioos:station:SCCF:16:1,2010-03-11T12:00:00Z,26.4345,-81.9647,2.325,7.68,1111122 
SCCF RECON,ioos:station:SCCF:16:1,2010-03-11T13:00:00Z,26.4345,-81.9647,2.462,7.74,1111122 
SCCF RECON,ioos:station:SCCF:16:1,2010-03-11T14:00:00Z,26.4345,-81.9647,2.602,7.72,1111122 
SCCF RECON,ioos:station:SCCF:16:1,2010-03-11T15:00:00Z,26.4345,-81.9647,2.719,7.69,1111122 
SCCF RECON,ioos:station:SCCF:16:1,2010-03-11T16:00:00Z,26.4345,-81.9647,2.73,7.56,1111122 
SCCF RECON,ioos:station:SCCF:16:1,2010-03-11T17:00:00Z,26.4345,-81.9647,2.684,7.81,1111122 
SCCF RECON,ioos:station:SCCF:16:1,2010-03-11T18:00:00Z,26.4345,-81.9647,2.612,7.75,1111122 
SCCF RECON,ioos:station:SCCF:16:1,2010-03-11T19:00:00Z,26.4345,-81.9647,2.528,7.74,1111122 